Simultaneous Nadir Overpasses (SNOs) Predictions

Prediction of SNOs between GOES-15 and METOP-A Satellite Orbit:

Table of predicted SNOs for the next 14.0 days since TLE Epoch: 2/14/2014
Index Date Time (GOES-15) GOES-15 Lat,Lon METOP-A Lat,Lon Distance(km) Time Diff (sec)
1 02/15/2014 06:46:11 -0.06,-135.35 -0.82,-138.85 397.90 80
2 02/16/2014 06:22:52 -0.06,-135.34 0.29,-133.86 170.17 80
3 02/17/2014 18:44:23 0.07,-135.36 0.72,-138.42 348.15 80
4 02/18/2014 18:21:03 0.06,-135.35 -0.40,-133.43 219.63 80
5 02/20/2014 06:42:43 -0.07,-135.30 -0.69,-138.01 309.58 80
6 02/21/2014 06:19:23 -0.06,-135.28 0.43,-133.02 257.56 80
7 02/22/2014 18:40:55 0.06,-135.28 0.57,-137.59 262.39 80
8 02/23/2014 18:17:35 0.06,-135.26 -0.56,-132.60 304.31 80
9 02/25/2014 06:39:14 -0.06,-135.20 -0.52,-137.18 226.39 80
10 02/26/2014 06:15:55 -0.06,-135.18 0.60,-132.19 339.93 80
11 02/27/2014 18:34:45 0.06,-135.16 0.44,-136.75 181.18 80




NCC Satellite Simultaneous Nadir Overpasses (SNOs) Prediction Service
